Fort Meade, MD

12:52 PM EDT on March 28, 2017 (GMT -0400)
Tipton

Weather History for KFME - October, 2011

Change the Weather History Date:

Saturday, October 29, 2011

  Actual Average (KBWI) Record (KBWI)
Temperature  
Mean Temperature 37 °F -  
Max Temperature 41 °F 63 °F 82 °F (1946)
Min Temperature 33 °F 40 °F 26 °F (2001)
Degree Days  
Heating Degree Days 28    
Moisture  
Dew Point 35 °F    
Average Humidity 94    
Maximum Humidity 100    
Minimum Humidity 87    
Precipitation  
Precipitation 0.00 in - - ()
Sea Level Pressure  
Sea Level Pressure 30.03 in    
Wind  
Wind Speed 7 mph (NNE)    
Max Wind Speed 12 mph    
Max Gust Speed 21 mph    
Visibility 6 miles    
Events      
Averages and records for this station are not official NWS values.
T = Trace of Precipitation, MM = Missing Value Source: NWS Daily Summary

Daily Weather History Graph

Daily Weather History Graph

Search for Another Location

Airport or City:

Trip Planner

Search our weather history database for the weather conditions in past years. The results will help you decide how hot, cold, wet, or windy it might be!

Date:

Astronomy

Oct. 29, 2011 Rise Set
Actual Time 7:30 AM EDT 6:09 PM EDT
Civil Twilight 7:03 AM EDT 6:37 PM EDT
Nautical Twilight 6:31 AM EDT 7:08 PM EDT
Astronomical Twilight 6:00 AM EDT 7:39 PM EDT
Moon 10:49 AM EDT (10/29) 8:32 PM EDT (10/29)
Length of Visible Light 11h 34m
Length of Day
10h 39m
Waxing Crescent, 11% of the Moon is Illuminated
Oct 29
Waxing Crescent
Nov 2
First Quarter
Nov 10
Full
Nov 18
Last Quarter
Nov 25
New

Hourly Weather History & Observations

Time (EDT) Temp. Windchill Dew Point Humidity Pressure Visibility Wind Dir Wind Speed Gust Speed Precip Events Conditions
12:12 AM 39.2 °F 37.0 °F 37.4 °F 93% 30.21 in 7.0 mi ENE 3.5 mph - N/A   Overcast
12:30 AM 39.2 °F 37.0 °F 37.4 °F 93% 30.20 in 7.0 mi North 3.5 mph - N/A   Overcast
12:51 AM 39.2 °F 35.0 °F 37.4 °F 93% 30.19 in 7.0 mi NNE 5.8 mph - N/A   Overcast
1:09 AM 39.2 °F 37.0 °F 37.4 °F 93% 30.19 in 7.0 mi NNE 3.5 mph - N/A   Overcast
1:30 AM 41.0 °F 38.0 °F 37.4 °F 87% 30.18 in 7.0 mi NE 4.6 mph - N/A   Overcast
1:48 AM 41.0 °F 37.1 °F 37.4 °F 87% 30.17 in 7.0 mi ENE 5.8 mph - N/A   Overcast
2:06 AM 39.2 °F 34.2 °F 37.4 °F 93% 30.17 in 10.0 mi ENE 6.9 mph - N/A   Overcast
2:27 AM 39.2 °F 37.0 °F 37.4 °F 93% 30.16 in 10.0 mi NE 3.5 mph - N/A   Overcast
3:06 AM 39.2 °F 35.0 °F 37.4 °F 93% 30.14 in 7.0 mi NE 5.8 mph - N/A   Overcast
3:24 AM 39.2 °F 35.0 °F 37.4 °F 93% 30.13 in 7.0 mi NE 5.8 mph - N/A   Overcast
3:45 AM 39.2 °F 34.2 °F 37.4 °F 93% 30.12 in 10.0 mi NE 6.9 mph - N/A   Overcast
4:03 AM 37.4 °F 30.8 °F 35.6 °F 93% 30.10 in 10.0 mi NE 9.2 mph 16.1 mph N/A   Overcast
4:21 AM 37.4 °F 30.8 °F 35.6 °F 93% 30.11 in 7.0 mi NNE 9.2 mph 17.3 mph N/A   Overcast
4:42 AM 37.4 °F 30.8 °F 35.6 °F 93% 30.10 in 5.0 mi NE 9.2 mph - N/A   Overcast
5:00 AM 37.4 °F 30.3 °F 35.6 °F 93% 30.10 in 5.0 mi NE 10.4 mph 17.3 mph N/A   Overcast
5:21 AM 37.4 °F 32.1 °F 35.6 °F 93% 30.10 in 5.0 mi NE 6.9 mph - N/A   Overcast
6:00 AM 37.4 °F 30.8 °F 35.6 °F 93% 30.08 in 7.0 mi NE 9.2 mph 18.4 mph N/A   Overcast
6:18 AM 37.4 °F 30.3 °F 35.6 °F 93% 30.06 in 5.0 mi NE 10.4 mph 20.7 mph N/A   Overcast
6:57 AM 35.6 °F 29.2 °F 33.8 °F 93% 30.05 in 5.0 mi NE 8.1 mph - N/A   Overcast
7:15 AM 35.6 °F 29.2 °F 33.8 °F 93% 30.03 in 5.0 mi NE 8.1 mph 16.1 mph N/A   Overcast
7:36 AM 35.6 °F 28.6 °F 33.8 °F 93% 30.02 in 5.0 mi NE 9.2 mph - N/A   Overcast
7:54 AM 37.4 °F 30.8 °F 35.6 °F 93% 30.01 in 5.0 mi NNE 9.2 mph 17.3 mph N/A   Overcast
8:15 AM 37.4 °F 31.4 °F 35.6 °F 93% 30.01 in 5.0 mi NE 8.1 mph - N/A   Overcast
8:54 AM 37.4 °F 31.4 °F 35.6 °F 93% 30.00 in 4.0 mi NE 8.1 mph - N/A   Overcast
9:12 AM 37.4 °F 33.8 °F 35.6 °F 93% 29.99 in 3.0 mi NE 4.6 mph - N/A   Overcast
9:30 AM 37.4 °F 32.8 °F 35.6 °F 93% 29.98 in 3.0 mi NNE 5.8 mph - N/A   Overcast
9:51 AM 37.4 °F 31.4 °F 35.6 °F 93% 29.98 in 3.0 mi North 8.1 mph - N/A   Overcast
10:09 AM 37.4 °F 31.4 °F 35.6 °F 93% 29.99 in 2.5 mi North 8.1 mph 19.6 mph N/A   Overcast
10:30 AM 37.4 °F 30.8 °F 35.6 °F 93% 29.98 in 2.5 mi NNE 9.2 mph - N/A   Overcast
10:48 AM 37.4 °F 32.1 °F 35.6 °F 93% 29.97 in 2.0 mi NNE 6.9 mph - N/A   Overcast
11:09 AM 37.4 °F 30.3 °F 35.6 °F 93% 29.94 in 4.0 mi NE 10.4 mph 17.3 mph N/A   Overcast
11:27 AM 37.4 °F 30.8 °F 35.6 °F 93% 29.94 in 10.0 mi North 9.2 mph - N/A   Overcast
11:45 AM 37.4 °F 30.8 °F 35.6 °F 93% 29.92 in 10.0 mi North 9.2 mph - N/A   Overcast
12:06 PM 37.4 °F 30.3 °F 35.6 °F 93% 29.91 in 10.0 mi NNE 10.4 mph 18.4 mph N/A   Overcast
12:45 PM 37.4 °F 32.1 °F 35.6 °F 93% 29.91 in 4.0 mi North 6.9 mph - N/A   Overcast
1:03 PM 37.4 °F 32.1 °F 35.6 °F 93% 29.93 in 5.0 mi NW 6.9 mph - N/A   Overcast
1:24 PM 37.4 °F 30.3 °F 35.6 °F 93% 29.91 in 3.0 mi NNW 10.4 mph - N/A   Overcast
2:00 PM 35.6 °F 29.9 °F 33.8 °F 93% 29.93 in 2.0 mi NW 6.9 mph - N/A   Overcast
2:21 PM 35.6 °F 29.2 °F 33.8 °F 93% 29.93 in 2.5 mi NW 8.1 mph - N/A   Overcast
2:39 PM 33.8 °F 27.7 °F 32.0 °F 93% 29.93 in 1.8 mi NNW 6.9 mph - N/A   Overcast
3:18 PM 33.8 °F 25.3 °F 33.8 °F 100% 29.94 in 3.0 mi NNW 11.5 mph 17.3 mph N/A   Overcast
3:36 PM 33.8 °F 27.0 °F 33.8 °F 100% 29.95 in 3.0 mi NNW 8.1 mph 17.3 mph N/A   Overcast
3:57 PM 33.8 °F 30.8 °F 33.8 °F 100% 29.94 in 4.0 mi NNW 3.5 mph - N/A   Overcast
4:15 PM 33.8 °F 28.6 °F 32.0 °F 93% 29.95 in 2.0 mi NNW 5.8 mph - N/A   Overcast
4:36 PM 33.8 °F 28.6 °F 32.0 °F 93% 29.96 in 3.0 mi North 5.8 mph - N/A   Overcast
4:54 PM 33.8 °F 28.6 °F 32.0 °F 93% 29.98 in 2.5 mi NW 5.8 mph - N/A   Overcast
5:15 PM 33.8 °F 28.6 °F 33.8 °F 100% 29.98 in 7.0 mi North 5.8 mph - N/A   Overcast
5:33 PM 33.8 °F 27.7 °F 32.0 °F 93% 30.00 in 4.0 mi NNW 6.9 mph 16.1 mph N/A   Overcast
5:51 PM 33.8 °F 28.6 °F 33.8 °F 100% 30.00 in 10.0 mi NNW 5.8 mph - N/A   Overcast
6:12 PM 33.8 °F 27.0 °F 33.8 °F 100% 30.01 in 10.0 mi NNW 8.1 mph - N/A   Overcast
6:30 PM 33.8 °F 27.0 °F 33.8 °F 100% 30.02 in 10.0 mi NW 8.1 mph - N/A   Overcast
6:51 PM 35.6 °F 30.7 °F 33.8 °F 93% 30.02 in 10.0 mi NNW 5.8 mph - N/A   Overcast
7:48 PM 35.6 °F 28.0 °F 33.8 °F 93% 30.04 in 10.0 mi WNW 10.4 mph - N/A   Overcast
8:06 PM 35.6 °F 29.2 °F 33.8 °F 93% 30.05 in 10.0 mi NW 8.1 mph - N/A   Overcast
8:27 PM 33.8 °F 28.6 °F 32.0 °F 93% 30.05 in 10.0 mi NW 5.8 mph - N/A   Overcast
8:45 PM 33.8 °F 26.4 °F 32.0 °F 93% 30.06 in 10.0 mi NW 9.2 mph - N/A   Overcast
9:06 PM 33.8 °F 27.0 °F 32.0 °F 93% 30.06 in 10.0 mi NW 8.1 mph 17.3 mph N/A   Overcast
9:24 PM 33.8 °F 27.7 °F 32.0 °F 93% 30.06 in 10.0 mi NW 6.9 mph - N/A   Mostly Cloudy
9:45 PM 33.8 °F 27.0 °F 32.0 °F 93% 30.06 in 10.0 mi NW 8.1 mph - N/A   Mostly Cloudy
10:03 PM 33.8 °F 27.7 °F 32.0 °F 93% 30.07 in 10.0 mi NW 6.9 mph - N/A   Scattered Clouds
10:42 PM 33.8 °F 28.6 °F 32.0 °F 93% 30.07 in 10.0 mi NW 5.8 mph - N/A   Clear
11:00 PM 33.8 °F 28.6 °F 32.0 °F 93% 30.07 in 10.0 mi NW 5.8 mph - N/A   Clear
11:21 PM 32.0 °F 27.5 °F 32.0 °F 100% 30.07 in 10.0 mi NW 4.6 mph - N/A   Clear
11:39 PM 32.0 °F - 32.0 °F 100% 30.08 in 10.0 mi Calm Calm - N/A   Clear